Temperature
18 17 17 17 17 16 16 15 15 15 15 15 14 14 14 14 13 13 13 13 13 13 12 12 12 12 12 12 11 11 11 11 11 11 11 11 11 11 11 12 12 12 12
18 17 17 17 17 16 16 15 15 15 15 14 14 14 14 13 13 13 13 13 13 12 12 12 12 12 12 11 11 11 11 11 11 11 11 11 11 11 11 11 11 11 11
18 17 17 17 17 16 16 16 15 15 15 14 14 14 14 13 13 13 13 12 12 12 12 12 12 11 11 11 11 11 11 11 10 10 10 10 11 11 11 11 11 11 11
18 17 17 17 17 16 16 15 15 15 15 14 14 14 13 13 13 13 12 12 12 12 12 11 11 11 11 11 11 11 11 10 10 10 10 10 10 10 10 11 11 11 11
18 17 17 17 16 16 16 15 15 15 15 14 14 14 13 13 13 12 12 12 12 11 11 11 11 11 11 11 11 10 10 10 10 10 10 10 10 10 10 10 10 10 10
17 17 17 17 16 16 16 15 15 15 15 14 14 14 13 13 13 12 12 12 12 11 11 11 11 11 11 10 10 10 10 10 10 10 10 10 10 10 10 9 9 10 10
17 17 17 16 16 16 15 15 15 15 14 14 14 14 13 13 13 12 12 12 12 11 11 11 11 11 10 10 10 10 10 10 10 9 9 9 9 9 9 9 9 9 9
17 17 17 16 16 16 15 15 15 15 14 14 14 13 13 13 12 12 12 12 12 11 11 11 11 10 10 10 10 10 10 10 9 9 9 9 9 9 9 8 8 8 9
17 17 17 16 16 16 15 15 15 14 14 14 14 13 13 13 12 12 12 11 11 11 11 11 10 10 10 10 10 10 10 9 9 9 9 9 8 8 8 8 8 8 8
17 17 16 16 16 16 15 15 14 14 14 13 13 13 13 13 12 12 11 11 11 11 11 10 10 10 10 9 9 9 9 9 9 9 9 8 8 8 8 8 8 7 7
17 16 16 16 16 15 15 15 14 14 13 13 13 13 12 12 12 12 11 11 11 11 10 10 10 10 9 9 9 9 9 9 9 8 8 8 8 8 8 8 7 7 7
16 16 16 16 15 15 15 14 14 13 13 13 13 13 12 12 12 11 11 11 11 10 10 10 10 10 9 9 9 9 9 8 8 8 8 8 8 8 8 7 7 7 7
16 16 16 15 15 15 14 14 14 13 13 13 12 12 12 12 11 11 11 11 10 10 10 10 10 9 9 9 9 8 8 8 8 8 8 8 8 7 7 7 7 7 7
16 15 15 15 14 14 14 13 13 13 13 12 12 12 12 11 11 11 11 10 10 10 10 10 9 9 9 9 8 8 8 8 8 7 7 7 7 7 7 7 7 6 6
15 14 14 14 14 13 13 13 13 12 12 12 12 11 11 11 11 11 10 10 10 9 9 9 9 9 9 8 8 8 8 8 7 7 7 7 7 7 7 6 6 6 6
14 14 13 13 13 13 13 12 12 12 12 11 11 11 11 10 10 10 10 10 9 9 9 8 8 8 8 8 8 8 8 7 7 7 7 6 6 6 6 6 6 5 5
13 13 13 13 12 12 12 12 12 11 11 11 11 10 10 10 10 10 9 9 9 8 8 8 8 8 8 7 7 7 7 7 7 6 6 6 6 6 5 5 5 5 5
13 12 12 12 12 11 11 11 11 11 11 10 10 10 10 10 9 9 9 8 8 8 8 7 7 7 7 7 7 7 6 6 6 6 6 6 5 5 5 5 5 5 4
12 12 11 11 11 11 11 10 10 10 10 10 10 9 9 9 9 8 8 8 8 7 7 7 7 7 6 6 6 6 6 6 5 5 5 5 5 5 4 4 4 4 4
11 11 11 10 10 10 10 10 9 9 9 9 9 9 8 8 8 8 7 7 7 7 6 6 6 6 6 6 5 5 5 5 5 5 5 4 4 4 4 4 4 3 3
10 10 10 10 9 9 9 9 9 8 8 8 8 8 7 7 7 7 7 6 6 6 6 5 5 5 5 5 5 5 5 4 4 4 4 4 4 3 3 3 3 3 3
9 9 9 9 9 8 8 8 8 7 7 7 7 7 6 6 6 6 6 6 5 5 5 5 5 4 4 4 4 4 4 4 4 4 3 3 3 3 3 3 3 3 2
9 9 8 8 8 7 7 7 7 7 7 6 6 6 6 5 5 5 5 5 5 4 4 4 4 4 4 4 3 3 3 3 3 3 3 2 2 2 2 2 2 2 2
8 8 8 7 7 7 7 7 6 6 6 6 5 5 5 5 5 4 4 4 4 4 4 3 3 3 3 3 3 3 3 2 2 2 2 2 2 2 2 2 2 2 1
8 7 7 7 7 6 6 6 6 5 5 5 5 4 4 4 4 4 3 3 3 3 3 3 2 2 2 2 2 2 2 2 2 1 1 1 1 1 1 1 1 1 1
7 7 7 6 6 6 5 5 5 5 4 4 4 4 4 3 3 3 3 3 2 2 2 2 2 2 2 2 1 1 1 1 1 1 1 1 1 1 1 1 0 0 0
Wind_Speed
7 6 5 5 5 4 4 4 3 2 2 3 2 3 2 2 3 3 2 2 3 3 3 3 3 2 2 2 1 1 1 1 1 3 3 3 4 5 9 10 9 9 9
7 6 6 5 5 5 4 4 4 3 3 3 3 3 2 2 2 2 1 2 2 1 2 2 2 2 2 2 1 1 1 0 1 2 3 3 4 5 5 6 7 8 8
7 7 6 6 6 6 5 4 4 4 3 3 3 3 2 2 2 1 1 1 1 0 0 0 1 1 2 1 1 1 1 1 0 1 3 2 3 3 4 4 5 5 7
8 8 7 7 7 7 6 5 5 5 4 4 3 3 2 2 2 2 1 1 1 0 1 0 1 1 1 1 1 1 0 1 1 1 2 3 3 3 2 3 4 4 4
8 8 8 7 6 6 5 5 4 4 4 4 3 2 2 2 3 3 2 2 1 0 1 1 1 1 1 1 1 1 0 0 1 1 2 3 3 3 3 3 4 4 4
8 9 7 6 6 6 6 5 5 4 4 3 4 3 3 3 4 4 3 2 2 1 1 2 2 2 3 3 3 1 1 1 1 1 2 2 4 3 3 3 3 3 4
8 8 7 7 7 7 6 6 6 5 4 4 4 4 3 4 5 5 5 3 2 2 2 2 2 2 2 2 3 3 3 4 3 2 3 4 4 4 3 3 3 3 4
8 7 7 7 7 6 6 6 6 4 5 5 5 5 4 5 6 5 5 2 2 3 3 4 3 3 3 2 1 2 3 4 5 3 4 5 5 5 4 4 4 4 4
7 8 8 8 8 7 7 7 5 5 5 5 4 5 5 5 7 6 5 2 2 3 4 4 4 4 6 5 2 3 4 5 6 6 7 7 8 8 6 2 2 3 5
8 8 7 8 9 9 8 6 4 5 5 5 5 5 5 6 8 8 6 3 3 3 3 4 6 6 8 7 4 4 5 6 5 5 6 7 7 7 8 4 3 3 4
6 5 6 7 8 7 6 5 4 4 4 4 4 4 5 6 8 9 8 4 5 4 4 4 5 9 10 9 7 5 8 7 4 4 4 4 4 4 5 5 5 4 5
4 5 5 5 5 5 6 4 4 5 4 4 3 4 4 5 6 8 9 9 7 5 6 5 6 10 10 10 8 8 10 8 3 3 3 5 5 5 5 6 7 8 9
4 4 4 4 4 4 5 5 3 4 4 4 4 4 5 4 5 9 9 9 9 6 6 9 10 10 9 7 9 10 7 4 3 4 5 6 5 6 5 5 6 7 8
4 3 3 3 3 3 3 4 4 5 4 4 4 5 5 4 4 4 4 5 6 6 6 7 9 9 7 7 7 6 4 4 4 6 6 6 5 4 5 4 4 4 4
4 3 3 3 3 2 2 3 4 5 6 6 6 5 5 6 8 8 5 5 5 6 4 2 3 3 4 4 4 5 4 4 5 5 5 6 5 5 6 4 4 4 5
3 2 2 2 2 2 2 1 3 4 6 8 7 6 6 8 9 8 8 8 9 7 3 3 4 5 6 6 6 6 5 6 6 6 6 6 6 7 7 6 5 5 7
3 3 2 2 2 2 2 2 2 3 3 4 5 6 7 7 7 7 7 7 6 5 4 5 6 6 7 7 7 7 7 7 6 6 7 7 7 7 7 7 6 6 7
2 2 2 2 2 2 2 2 2 2 2 3 4 5 5 6 6 6 5 2 2 2 4 5 6 7 7 7 7 7 7 7 6 6 7 7 7 7 7 8 7 8 8
2 1 1 1 1 1 1 1 1 1 2 3 3 4 4 4 4 4 2 1 3 4 5 5 6 7 7 7 7 7 7 7 7 6 7 8 7 7 8 8 8 10 10
1 2 2 1 1 1 1 0 0 1 2 2 3 4 3 2 2 3 2 2 4 5 5 6 6 6 6 6 7 6 7 7 7 7 8 8 7 7 9 10 9 9 9
1 1 2 2 1 1 1 1 1 2 2 3 4 4 3 2 3 4 4 4 4 5 5 6 6 6 6 6 6 7 8 7 7 7 8 8 7 8 8 9 9 9 9
2 1 1 1 1 1 1 1 2 2 3 3 3 3 4 2 3 4 4 5 5 5 5 5 6 6 6 6 6 7 7 8 8 7 8 8 8 8 9 9 9 9 9
2 1 1 0 1 1 1 1 2 2 3 3 3 3 3 3 4 4 5 5 5 5 5 5 5 5 6 7 7 6 7 8 8 8 8 8 8 9 9 9 10 10 10
1 1 1 1 1 1 2 2 2 3 3 4 4 4 4 4 5 5 5 5 5 5 6 6 6 7 9 8 8 9 10 11 11 9 10 10 9 9 8 9 9 10 10
1 1 1 1 1 2 2 2 2 3 3 4 4 4 4 4 5 5 5 5 6 6 6 7 7 8 10 11 11 11 13 15 14 12 10 9 9 9 9 9 9 10 11
1 0 0 0 1 1 2 2 3 3 3 4 3 4 4 4 5 5 6 5 5 6 7 7 9 10 12 12 13 15 16 16 16 15 11 8 9 9 9 9 11 11 11
Wind_Direction
180 178 169 172 168 159 161 174 176 168 154 149 140 121 107 90 80 87 78 72 68 38 27 41 20 10 28 18 32 52 72 143 212 297 303 318 338 344 350 1 8 11 9
180 174 174 169 163 164 173 179 169 167 159 153 140 131 126 115 106 113 103 77 85 47 7 23 1 13 19 7 24 27 13 191 188 291 318 328 328 327 335 345 360 5 7
172 172 174 174 175 181 185 181 169 164 158 148 144 146 149 147 137 144 139 120 123 191 294 11 327 15 1 342 2 10 352 8 142 250 302 312 314 322 332 337 344 350 356
174 177 184 191 190 188 183 178 174 168 166 166 169 169 169 165 165 169 151 135 127 323 301 279 286 259 270 287 322 316 343 25 353 312 305 312 307 308 332 338 336 339 337
178 187 197 192 182 175 175 178 173 172 179 173 168 174 179 182 190 179 171 166 163 202 330 309 284 287 305 279 285 237 172 34 338 330 314 319 319 327 323 315 321 320 321
185 196 192 178 178 182 183 177 172 176 176 169 180 186 200 216 207 200 182 172 179 191 265 302 304 317 328 336 327 308 242 225 240 261 285 289 290 284 289 301 312 332 321
189 190 182 178 184 190 185 176 183 187 182 186 197 195 212 233 222 212 206 184 195 212 229 260 286 294 310 330 326 331 319 303 268 226 242 261 270 268 277 292 285 275 276
187 188 183 181 188 186 182 188 194 188 187 196 205 209 216 237 229 221 216 187 205 229 234 233 242 269 271 268 275 311 302 297 286 266 238 251 256 257 244 253 266 281 280
192 195 190 184 185 184 193 200 197 189 197 203 205 207 214 239 238 228 217 187 221 249 252 243 236 248 266 269 252 271 288 292 289 280 273 274 281 285 279 278 287 296 298
204 202 191 186 187 193 200 198 191 193 205 204 214 215 218 235 243 235 226 196 222 250 263 263 260 259 266 261 239 241 265 272 280 293 295 296 294 292 287 256 236 253 270
200 188 183 188 193 195 191 188 185 187 188 202 220 231 231 238 247 243 234 213 216 234 251 258 259 267 269 265 252 237 254 263 256 260 275 286 292 287 282 263 238 229 243
166 172 182 185 191 186 178 182 178 176 188 209 224 250 253 250 247 249 244 238 229 223 240 247 253 265 269 269 262 258 264 269 258 259 270 277 278 277 274 272 262 249 244
145 165 177 172 177 170 174 177 174 179 194 214 219 240 257 255 254 255 253 250 242 234 242 250 258 265 268 268 266 267 267 257 245 255 261 264 261 264 274 284 281 272 267
140 151 152 150 154 156 169 177 182 191 202 215 225 239 252 258 255 252 250 253 253 252 256 263 268 269 261 260 269 273 259 244 241 247 258 262 266 269 268 266 272 280 284
132 136 141 147 157 164 181 197 202 210 205 209 222 225 233 252 252 240 233 236 233 235 243 257 260 267 266 267 267 266 259 256 254 249 253 262 267 270 270 262 256 262 264
130 136 150 153 159 166 179 268 268 245 248 239 236 230 238 246 262 261 251 249 248 242 229 243 254 255 256 260 263 267 261 254 251 250 252 254 259 264 271 267 253 253 264
145 157 160 161 169 176 181 197 277 312 306 280 269 262 259 266 271 270 267 262 257 242 233 247 254 256 258 258 257 257 260 259 253 250 252 253 254 259 263 266 263 261 265
135 146 154 174 177 185 197 209 214 237 295 309 307 297 290 284 282 277 275 283 282 259 239 248 255 258 259 260 258 257 259 262 256 253 252 252 249 253 259 262 261 260 266
129 136 149 150 155 172 182 186 217 245 262 285 308 312 308 306 308 305 300 243 254 261 258 257 257 258 260 260 260 259 258 260 259 256 256 255 253 252 257 260 262 263 263
116 109 106 115 117 121 130 158 245 265 274 279 282 286 307 329 319 310 299 272 265 267 268 268 268 266 265 266 266 265 265 265 261 258 258 258 256 253 258 261 262 264 265
119 99 95 104 138 170 193 221 235 241 255 270 274 278 291 282 277 282 282 274 269 271 273 274 274 273 271 271 270 268 267 268 264 262 262 261 259 259 259 261 263 263 266
135 135 143 168 197 223 250 253 254 259 267 275 286 294 297 286 278 283 283 282 277 269 269 271 275 274 270 270 271 272 271 271 271 267 265 265 264 263 262 261 262 264 265
140 145 146 238 240 259 276 272 266 268 274 276 279 286 285 280 278 279 281 284 286 287 288 281 278 281 283 279 274 269 269 271 270 270 269 270 269 267 265 264 264 267 266
146 160 187 245 257 253 263 273 274 274 275 278 278 276 276 276 278 280 283 284 286 290 292 289 283 282 284 288 286 280 275 276 277 273 267 266 268 268 268 268 268 268 269
134 151 187 240 268 271 274 277 281 284 285 283 281 282 284 285 286 289 290 290 291 290 291 292 289 289 288 286 287 288 288 287 287 286 280 271 269 267 267 269 270 272 272
125 143 220 253 278 284 282 284 286 288 289 290 289 290 289 289 290 291 292 291 290 290 291 291 288 289 291 290 289 290 292 293 293 293 289 280 274 271 271 272 274 272 275
Height
1562 1564 1565 1567 1567 1568 1568 1568 1568 1568 1568 1568 1568 1567 1567 1566 1565 1565 1564 1563 1562 1562 1561 1560 1559 1558 1557 1556 1555 1554 1553 1551 1550 1548 1548 1547 1545 1544 1543 1542 1540 1539 1538
1560 1562 1563 1565 1566 1566 1567 1567 1567 1567 1567 1567 1567 1566 1566 1565 1565 1564 1563 1562 1562 1561 1560 1559 1558 1557 1556 1555 1554 1553 1552 1551 1549 1547 1546 1546 1544 1543 1541 1540 1539 1537 1536
1558 1559 1561 1563 1563 1564 1565 1565 1565 1565 1565 1565 1565 1565 1565 1564 1564 1563 1562 1561 1561 1560 1559 1558 1557 1556 1555 1554 1553 1552 1551 1550 1548 1547 1545 1544 1543 1541 1540 1539 1537 1536 1535
1555 1557 1558 1560 1561 1562 1563 1563 1564 1564 1564 1564 1564 1564 1563 1563 1562 1562 1561 1560 1559 1559 1558 1557 1556 1555 1554 1553 1552 1551 1550 1548 1547 1545 1544 1542 1541 1540 1538 1536 1535 1534 1532
1551 1553 1555 1557 1559 1560 1560 1561 1561 1562 1562 1562 1562 1562 1562 1561 1561 1560 1560 1559 1558 1557 1557 1556 1555 1554 1553 1552 1551 1550 1548 1547 1546 1544 1542 1541 1539 1538 1536 1534 1532 1531 1530
1548 1550 1552 1554 1556 1557 1558 1559 1559 1559 1559 1559 1560 1560 1559 1559 1559 1558 1558 1557 1556 1556 1555 1555 1554 1553 1552 1551 1549 1548 1547 1546 1544 1542 1541 1539 1537 1536 1534 1532 1530 1528 1526
1544 1547 1549 1551 1552 1554 1555 1556 1556 1556 1557 1557 1557 1557 1557 1557 1557 1556 1556 1555 1554 1554 1553 1553 1552 1551 1550 1549 1547 1546 1545 1544 1542 1541 1539 1537 1535 1534 1532 1530 1528 1526 1524
1540 1543 1545 1547 1549 1551 1552 1552 1553 1553 1554 1554 1554 1554 1554 1554 1554 1554 1553 1553 1552 1551 1551 1550 1549 1548 1547 1546 1545 1544 1542 1541 1540 1538 1536 1535 1533 1531 1529 1528 1525 1523 1521
1537 1539 1542 1544 1546 1547 1548 1549 1550 1550 1551 1551 1551 1551 1551 1551 1551 1551 1551 1550 1549 1548 1548 1547 1546 1545 1544 1543 1542 1540 1539 1538 1537 1535 1533 1532 1530 1528 1526 1524 1522 1520 1517
1533 1536 1538 1540 1542 1543 1545 1546 1546 1547 1547 1548 1548 1548 1548 1548 1548 1548 1547 1547 1546 1545 1544 1544 1543 1542 1541 1540 1538 1537 1535 1534 1533 1531 1530 1528 1527 1525 1523 1521 1519 1516 1514
1531 1533 1535 1537 1538 1540 1541 1542 1543 1543 1543 1544 1544 1544 1544 1544 1544 1544 1543 1543 1542 1541 1540 1539 1538 1538 1537 1535 1534 1533 1531 1530 1528 1527 1525 1524 1522 1520 1519 1517 1515 1513 1510
1528 1530 1531 1533 1535 1536 1537 1538 1539 1539 1539 1540 1540 1540 1540 1540 1540 1539 1539 1538 1538 1537 1535 1535 1534 1533 1532 1531 1529 1528 1527 1525 1524 1522 1520 1519 1517 1515 1514 1512 1510 1508 1506
1525 1526 1528 1529 1531 1532 1533 1534 1534 1535 1535 1535 1535 1535 1536 1536 1535 1535 1535 1534 1533 1532 1531 1530 1529 1528 1527 1525 1524 1523 1522 1520 1518 1516 1515 1513 1512 1510 1508 1507 1505 1503 1501
1522 1523 1524 1526 1527 1528 1529 1530 1530 1531 1531 1531 1531 1531 1531 1531 1530 1530 1529 1529 1528 1527 1526 1524 1523 1522 1521 1520 1519 1517 1516 1514 1513 1511 1509 1507 1506 1504 1503 1501 1499 1496 1494
1519 1520 1521 1522 1523 1524 1525 1526 1526 1527 1527 1527 1527 1526 1526 1525 1525 1525 1524 1523 1522 1521 1520 1518 1517 1516 1515 1513 1512 1511 1510 1508 1506 1505 1503 1501 1500 1498 1496 1495 1492 1490 1488
1516 1517 1518 1519 1520 1521 1521 1522 1522 1523 1523 1523 1523 1522 1521 1521 1521 1519 1518 1517 1516 1515 1514 1512 1511 1509 1508 1507 1505 1504 1503 1501 1500 1498 1496 1494 1492 1491 1489 1487 1486 1483 1481
1513 1514 1515 1515 1516 1517 1517 1518 1518 1519 1519 1519 1518 1517 1517 1516 1515 1514 1513 1512 1511 1509 1507 1506 1504 1503 1502 1500 1499 1497 1495 1494 1493 1491 1489 1487 1485 1484 1482 1480 1478 1476 1473
1511 1511 1512 1512 1513 1513 1514 1514 1514 1514 1513 1513 1513 1513 1512 1511 1510 1509 1507 1506 1504 1503 1501 1500 1499 1497 1496 1494 1492 1490 1489 1487 1485 1483 1482 1480 1478 1476 1474 1472 1470 1468 1465
1508 1508 1509 1509 1509 1510 1510 1510 1510 1509 1509 1508 1508 1507 1506 1505 1504 1503 1502 1500 1498 1497 1495 1494 1492 1491 1489 1487 1485 1483 1481 1480 1478 1476 1474 1472 1471 1469 1466 1464 1462 1460 1458
1505 1505 1506 1506 1506 1506 1506 1506 1506 1505 1504 1504 1503 1502 1501 1500 1498 1497 1496 1494 1493 1491 1490 1488 1486 1484 1482 1480 1478 1476 1474 1472 1470 1468 1466 1465 1463 1461 1458 1456 1454 1452 1449
1502 1502 1503 1503 1503 1502 1502 1502 1502 1501 1500 1499 1498 1498 1496 1495 1493 1492 1490 1489 1487 1486 1484 1482 1480 1478 1476 1474 1471 1469 1467 1465 1463 1461 1459 1456 1454 1452 1450 1448 1446 1444 1441
1500 1500 1500 1499 1499 1499 1499 1499 1498 1497 1496 1495 1494 1493 1492 1490 1489 1487 1485 1484 1482 1480 1478 1476 1473 1471 1469 1467 1464 1462 1459 1457 1455 1453 1451 1448 1446 1444 1442 1440 1437 1435 1433
1497 1497 1496 1496 1496 1496 1495 1495 1494 1493 1492 1491 1490 1488 1487 1485 1483 1482 1480 1478 1476 1474 1472 1470 1467 1464 1462 1460 1458 1455 1453 1450 1448 1446 1443 1440 1438 1436 1434 1431 1429 1427 1425
1494 1493 1493 1493 1492 1492 1491 1490 1490 1489 1487 1486 1485 1483 1482 1480 1478 1476 1474 1472 1470 1468 1466 1463 1460 1458 1455 1453 1451 1448 1446 1443 1441 1438 1435 1433 1430 1428 1425 1423 1420 1418 1417
1490 1490 1489 1489 1488 1487 1487 1486 1485 1484 1483 1482 1480 1478 1476 1475 1473 1470 1468 1466 1464 1461 1459 1456 1454 1451 1448 1446 1443 1441 1439 1436 1433 1431 1428 1425 1422 1420 1417 1415 1412 1410 1409
1487 1487 1486 1485 1484 1483 1482 1482 1481 1479 1478 1477 1475 1473 1471 1469 1467 1464 1462 1459 1457 1454 1452 1449 1447 1444 1441 1438 1436 1433 1431 1428 1425 1423 1420 1417 1414 1412 1409 1407 1405 1403 1401